Location: Unspecified
(43.4680°N, 87.1740°E)
Time: 05:43:01
(UTC+00:00)

Cosmos 1833 Rocket - Pass Details

Date: 17 April 2021
Orbit: 831 x 841 km, 71.0° (Epoch: 16 May)

Event Time Altitude Azimuth Distance (km) Brightness Sun altitude
Rises 20:49:50 0° 331° (NNW) 3,404 6.1 -24.8°
Reaches altitude 10° 20:52:19 10° 327° (NNW) 2,466 5.3 -24.5°
Maximum altitude 20:57:50 57° 251° (WSW) 989 2.7 -23.8°
Enters shadow 20:57:55 57° 247° (WSW) 989 2.7 -23.8°
